STARLINK-1723, 46333

Orbit data source: Space-Track

STARLINK-1723, 46333 is a payload satellite owned by SpaceX/Seattle (US) in LEO that was launched on Thu, 03 Sep 2020 UTC via an FALCON 9 launch vehicle from the Air Force Eastern Test Range (AFETR). Payload-class satellites include a variety of spacecraft equipped with specific instruments for various scientific and technological missions. These include communications satellites like Starlink; space stations such as the ISS; scientific satellites like the Hubble; Earth observation satellites from companies like Planet Labs, Umbra, and HawkEye 360; GPS; miniature CubeSats for education and research; and military/defense satellites.

Loading next visibility...
Identifier
46333, 2020-062J
Orbit
LEO
Country
Flag of USUS
Related business
Manufacturer
SpaceX/Seattle
Mission
Partially operational Commercial Communications
Bus & Motor
STARLINK, Unknown motor
Mass
260 kg wet, ~248 kg dry
Launch date (UTC)
2020-09-03 (5 years ago)
Launch vehicle
FALCON 9
Launch site
Air Force Eastern Test Range (AFETR)
Object type
Payload
Rocket body
Debris
Shape & HBR
Box + 1 Pan, 10.1 m
Radar Cross Section
13.562 m², Large (>1 m²)

Expand to show TLE details & history
Last TLE update: 6 hours ago

TLE from 6 hours ago
0 STARLINK-1723
1 46333U 20062J   26036.16668981  .00451651  00000-0  21480-2 0  9990
2 46333  53.0445 128.8455 0003599 158.6380  87.7346 15.81133594  5776
Epoch: 2026-02-05T04:00Z
TLE epoch observation values (Epoch: 2026-02-05T04:00:01.999Z)
Latitude
-47.2697°
Longitude
167.5962°
Altitude
343.262 km
Speed
7.703 km/s
True Right ascension
00h 11m 42s
True Declination
-47° 05' 16"
Sunlit
Object was in daylight at epoch
Visualization orbit readout
Latitude
Unknown
Longitude
Unknown
Altitude
Unknown
Speed
Unknown
Apparent Right ascension
Unknown
Apparent Declination
Unknown
Sunlit
N/A
Visualization observer readout
Local Sidereal Time
12:28:43
Azimuth
Unknown
Elevation
Unknown
Doppler factor
Unknown
Orbital elements
Apogee altitude
329.928 km
Perigee altitude
325.101 km
Semi-major axis
6,705.652 km
Eccentricity
0.00036
Inclination
53.0445°
RAAN
128.8455°
Arg. of periapsis
158.638°
True anomaly
87.77581°
Mean anomaly
87.7346°
Eccentric anomaly
87.7552°
Mean motion
3.95259 °/min
Orbital period
91.08 mins
BSTAR
0.002148
Loading maneuver chart data...
Computing Atmospheric mass density...
Loading historical data...
Loading historical data...
Loading historical data...
Loading historical data...
Loading historical data...
Loading historical data...
Loading historical data...

Documentation

Showing up to 5 results
|